Regional Weather Roundup
Issued by NWS

Home | Current Version | Previous Version | Text Only | Print | Product List | Glossary Off
Versions: 1 2 3 4 5 6 7 8 9 10 11 12 13 14 15 16 17 18 19 20 21 22 23 24 25 26 27 28 29 30 31 32 33 34 35 36 37 38 39 40 41 42 43 44 45 46 47 48 49 50

553
ASUS44 KMEG 171110
RWRTN
TENNESSEE HOURLY STATE WEATHER ROUNDUP
NATIONAL WEATHER SERVICE MEMPHIS TN
500 AM CST FRI NOV 17 2017

TNZ002-004-019-021-049-052-054-088>092-171200-
WEST TENNESSEE

CITY           SKY/WX    TMP DP  RH WIND       PRES   REMARKS
MEMPHIS INTL   MOCLDY    49  42  77 SE6       30.13R
NWS MEMPHIS      N/A     43 N/A N/A MISG        N/A
JACKSON        CLOUDY    39  37  92 E5        30.16R
DYERSBURG      CLEAR     37  37 100 E3        30.17R FOG
SOMERVILLE     PTCLDY    43  39  87 CALM      30.13R
COVINGTON      MOCLDY    37  36  93 CALM      30.15R
UNION CITY     CLEAR     34  34 100 CALM      30.15F FOG
BOLIVAR        PTCLDY    34  34 100 CALM      30.15R
PARIS          CLEAR     36  34  93 E5        30.15S FOG     WCI  32
HUNTINGDON     CLOUDY    34  34 100 CALM      30.16R FOG
LEXINGTON      CLEAR     32  32 100 N3        30.17R FOG
SELMER         CLEAR     37  36  93 CALM      30.15R
SAVANNAH       CLEAR     32  32 100 CALM      30.15S
$$

TNZ008-025-027-028-033-062-065-066-171200-
NORTH MIDDLE TENNESSEE

CITY           SKY/WX    TMP DP  RH WIND       PRES   REMARKS
NASHVILLE      CLOUDY    35  32  88 CALM      30.20R FOG
PORTLAND       CLOUDY    32  30  93 NE7       30.19R FOG     WCI  26
CLARKSVILLE    CLOUDY    31  28  89 E5        30.19R FOG     WCI  26
SMYRNA         CLOUDY    30  28  93 CALM      30.21R FOG
COOKEVILLE     CLEAR     28  28 100 CALM      30.17R FOG
GALLATIN       CLEAR     32  30  93 CALM      30.22R FOG
CROSSVILLE     MOCLDY    30  29  96 CALM      30.16S FOG
$$

TNZ061-075-076-078-094-096-097-171200-
SOUTH MIDDLE TENNESSEE

CITY           SKY/WX    TMP DP  RH WIND       PRES   REMARKS
FAYETTEVILLE   CLEAR     37  36  93 NE5       30.15R WCI  34
TULLAHOMA      CLEAR     32  30  93 CALM      30.15S
WINCHESTER     CLOUDY    27  27 100 CALM      30.17R VSB 1/4
MCMINNVILLE    CLEAR     30  30 100 NE3       30.17S
COLUMBIA       FOG       30  30 100 CALM      30.17R VSB 1/2
SHELBYVILLE    CLEAR     32  30  93 CALM      30.17R FOG
$$

TNZ017-018-042-046-047-171200-
NORTHEAST TENNESSEE

CITY           SKY/WX    TMP DP  RH WIND       PRES   REMARKS
TRI CITIES     CLEAR     30  30 100 CALM      30.20S FOG
ELIZABETHTON   CLEAR     32  30  93 CALM      30.20F
$$

TNZ012-013-036-069-073-074-171200-
CENTRAL EAST TENNESSEE

CITY           SKY/WX    TMP DP  RH WIND       PRES   REMARKS
KNOXVILLE      PTCLDY    39  38  96 N8        30.17R WCI  33
OAK RIDGE      CLEAR     37  37 100 CALM      30.20R
DOWNTOWN KNOXV   N/A     36  36 100 SE3       30.20R FOG
GATLINBURG     CLEAR     30  30 100 CALM      30.19R
MORRISTOWN     CLEAR     37  36  93 NE6       30.18S WCI  33
JACKSBORO      FOG       32  32 100 CALM      30.24S VSB 3/4
$$

TNZ083-085-099-171200-
SOUTHEAST TENNESSEE

CITY           SKY/WX    TMP DP  RH WIND       PRES   REMARKS
CHATTANOOGA    CLEAR     37  34  89 CALM      30.17S
$$

SKY/WX REPORTED AS FAIR MEANS FEW OR NO CLOUDS BELOW
12 THOUSAND FEET.





USA.gov is the U.S. government's official web portal to all federal, state and local government web resources and services.